Regional Weather Roundup
Issued by NWS

Home | Current Version | Previous Version | Graphics & Text | Print | Product List | Glossary Off
Versions: 1 2 3 4 5 6 7 8 9 10 11 12 13 14 15 16 17 18 19 20 21 22 23 24 25 26 27 28 29 30 31 32 33 34 35 36 37 38 39 40 41 42 43 44 45 46 47 48 49 50

000
ASUS43 KDMX 230006
RWRIA

WEATHER ROUNDUP FOR IOWA
NATIONAL WEATHER SERVICE DES MOINES IA
600 PM CST THU FEB 22 2018

NOTE: "FAIR" INDICATES FEW OR NO CLOUDS BELOW 12,000 FEET WITH NO
SIGNIFICANT WEATHER AND/OR OBSTRUCTIONS TO VISIBILITY.

* - THESE STATIONS ARE NOT NWS STATIONS...THUS NOT UNDER NWS
QUALITY CONTROL.  THEY ALSO DO NOT REPORT WEATHER SUCH
AS PRECIPITATION OR FOG.

IAZ001>003-012>014-020>022-031>034-043>046-230100-
   NORTHWEST IOWA

CITY           SKY/WX    TMP DP  RH WIND       PRES   REMARKS
CARROLL *      CLOUDY    28  28 100 SE16      30.18F FOG     WCI  17
CHEROKEE *     CLOUDY    28  27  98 SE6       30.19S WCI  21
DENISON *      MIX PCPN  30  28  93 SE5       30.20S WCI  25
LE MARS *      CLOUDY    28  27  93 SE8       30.18F WCI  20
ORANGE CITY *  MIX PCPN  27  27 100 SE7       30.18S WCI  19
SHELDON *      CLOUDY    27  25  93 SE13      30.17F WCI  16
SIOUX CITY     LGT SNOW  27  25  92 SE7       30.19F FOG     WCI  19
6HR MIN TEMP:  25; 6HR MAX TEMP:  28; 6HR PCP:  0.01;

SPENCER        MIX PCPN  27  25  92 E12       30.18F FOG     WCI  17
6HR MIN TEMP:  27; 6HR MAX TEMP:  29; 6HR PCP: TRACE;

STORM LAKE *   PTCLDY    27  27 100 SE14      30.17F FOG     WCI  15
$$

IAZ055>058-069>071-079>083-090>094-230100-
   SOUTHWEST IOWA

CITY           SKY/WX    TMP DP  RH WIND       PRES   REMARKS
ATLANTIC *     CLOUDY    32  32 100 SE10      30.16F WCI  24
AUDUBON *      MIX PCPN  30  28  93 CALM      30.17F
CLARINDA *     CLOUDY    32  32 100 SE8       30.19F WCI  25
COUNCIL BLFS * CLOUDY    30  30 100 SE7       30.16F WCI  23
CRESTON *      CLOUDY    30  30 100 E13       30.18F FOG     WCI  20
HARLAN  *      CLOUDY    30  30 100 SE7       30.20F WCI  23
LAMONI         CLOUDY    31  30  96 E7        30.19F FOG     WCI  24
6HR MIN TEMP:  29; 6HR MAX TEMP:  31; 6HR PCP:  0.04;

RED OAK *      CLOUDY    32  32 100 SE10      30.17F WCI  24
SHENANDOAH *   CLOUDY    32  32 100 SE7       30.18F WCI  26
$$

IAZ047>049-059>061-072>074-084-230100-
   CENTRAL IOWA

CITY           SKY/WX    TMP DP  RH WIND       PRES   REMARKS
AMES           CLOUDY    32  30  92 SE12      30.23F FOG     WCI  23
6HR MIN TEMP:  28; 6HR MAX TEMP:  32; 6HR PCP:  0.01;

ANKENY *       FOG       32  32 100 E8        30.24F VSB 1   WCI  25
BOONE *        CLOUDY    30  30 100 SE16      30.21F FOG     WCI  19
CHARITON *     CLOUDY    32  32 100 E14       30.21F FOG     WCI  22
DES MOINES     FRZ RAIN  32  30  92 E12       30.23F VSB 1   WCI  23
6HR MIN TEMP:  28; 6HR MAX TEMP:  32; 6HR PCP:  0.01;

GRINNELL*      CLOUDY    32  31  96 E9        30.27F FOG     WCI  24
KNOXVILLE *    CLOUDY    32  32 100 SE7       30.23F FOG     WCI  26
MARSHALLTOWN   CLOUDY    32  32 100 SE12      30.27S FOG     WCI  23
6HR MIN TEMP:  32; 6HR MAX TEMP:  34; 6HR PCP: TRACE;

NEWTON *       FOG       32  32 100 E10       30.25F VSB 1   WCI  24
PELLA *        DRIZZLE   32  32  99 E7        30.26F WCI  26
PERRY *        CLOUDY    31  31  99 E12       30.20F FOG     WCI  22
$$

IAZ004>006-015-016-023>025-035-036-230100-
   NORTH CENTRAL IOWA

CITY           SKY/WX    TMP DP  RH WIND       PRES   REMARKS
ALGONA *       CLOUDY    28 N/A N/A E12G18    30.21F FOG     WCI  18
CLARION *      CLOUDY    32  32 100 E16G23    30.21F FOG     WCI  21
ESTHERVILLE    LGT SNOW  26  24  92 E16       30.20F FOG     WCI  14
6HR MIN TEMP:  24; 6HR MAX TEMP:  28; 6HR PCP: TRACE;

FORT DODGE *   CLOUDY    30  29  96 SE10      30.21F WCI  21
MASON CITY     CLOUDY    29  26  89 E15       30.28F FOG     WCI  18
6HR MIN TEMP:  27; 6HR MAX TEMP:  29; 6HR PCP:  0.02;

FOREST CITY *  LGT SNOW  30  30 100 E9        30.24F WCI  22
WEBSTER CITY * CLOUDY    32  32 100 SE15      30.20F FOG     WCI  22
IOWA FALLS *   CLOUDY    32  32  98 E15       30.24F FOG     WCI  22
$$

IAZ007>011-017>019-026>030-037>042-050>054-066-230100-
   NORTHEAST IOWA

CITY           SKY/WX    TMP DP  RH WIND       PRES   REMARKS
CEDAR RAPIDS   DRIZZLE   33  32  96 E13       30.28F WCI  24
6HR MIN TEMP:  33; 6HR MAX TEMP:  35; 6HR PCP: TRACE;

CHARLES CITY * CLOUDY    30  30 100 E16       30.30F FOG     WCI  19
DECORAH *      CLOUDY    30  25  80 E14G20    30.33F WCI  20
DUBUQUE        CLOUDY    32  29  88 E13       30.33F FOG     WCI  22
6HR MIN TEMP:  30; 6HR MAX TEMP:  33; 6HR PCP:  0.02;

MONTICELLO *   CLOUDY    32  32 100 E9        30.33F FOG     WCI  24
OELWEIN *      CLOUDY    32  32 100 E13G21    30.31F FOG     WCI  22
WATERLOO       CLOUDY    31  31 100 E14       30.29F FOG     WCI  21
6HR MIN TEMP:  30; 6HR MAX TEMP:  34; 6HR PCP: TRACE;

$$

IAZ064-065-067-068-078-230100-
   EAST CENTRAL IOWA

CITY           SKY/WX    TMP DP  RH WIND       PRES   REMARKS
DAVENPORT      CLOUDY    37  34  89 E10       30.32F FOG     WCI  30
6HR MIN TEMP:  35; 6HR MAX TEMP:  38;

IOWA CITY      CLOUDY    36  33  89 E8        30.31F FOG     WCI  30
6HR MIN TEMP:  35; 6HR MAX TEMP:  36;

MT. PLEASANT * CLOUDY    34  34 100 E9        30.28S FOG     WCI  26
MUSCATINE *    CLOUDY    37  36  93 E6        30.31F FOG     WCI  33
QUAD CITIES    FOG       38  37  97 E10       30.30F VSB 3/4 WCI  31
6HR MIN TEMP:  37; 6HR MAX TEMP:  39;

$$

IAZ062-063-075>077-085>089-095>099-230100-
   SOUTHEAST IOWA

CITY           SKY/WX    TMP DP  RH WIND       PRES   REMARKS
BURLINGTON     CLOUDY    37  36  96 E9        30.27F FOG     WCI  30
6HR MIN TEMP:  35; 6HR MAX TEMP:  37; 6HR PCP:  0.02;

FAIRFIELD *    FOG       36  36 100 E7        30.28S VSB 1   WCI  30
FORT MADISON * CLOUDY    37  37 100 E7        30.27F FOG     WCI  32
KEOKUK *       FOG       36  36 100 E10       30.25F VSB 1   WCI  28
OSKALOOSA *    CLOUDY    32  32  99 E8        30.27F FOG     WCI  25
OTTUMWA        CLOUDY    34  32  92 E7        30.26F FOG     WCI  28
6HR MIN TEMP:  31; 6HR MAX TEMP:  34; 6HR PCP: TRACE;

WASHINGTON *   FOG       36  36 100 E9        30.29F VSB 1/2 WCI  29
$$

ABBREVIATIONS USED IN REMARKS
   TC - TEMPERATURES IN CELSIUS
  WCI - WIND CHILL INDEX
   HX - HEAT INDEX
  VSB - VISIBILITY
$$





USA.gov is the U.S. government's official web portal to all federal, state and local government web resources and services.